Weather History for Pittsburgh, PA

Change the Weather History Date:

Friday, February 15, 2013

  Actual Average Record
Temperature  
Mean Temperature 33 °F 31 °F  
Max Temperature 40 °F 39 °F 69 °F (1954)
Min Temperature 26 °F 23 °F -10 °F (1875)
Degree Days  
Heating Degree Days 32 34  
Month to date heating degree days 551 527  
Since 1 July heating degree days 3651 3836  
Cooling Degree Days 0 0  
Month to date cooling degree days 0 0  
Year to date cooling degree days 0 0  
Moisture  
Dew Point 25 °F    
Average Humidity 69    
Maximum Humidity 85    
Minimum Humidity 52    
Precipitation  
Precipitation 0.10 in 0.09 in 1.19 in (1989)
Month to date precipitation 0.55 1.29  
Year to date precipitation 2.99 3.99  
Snow  
Snow 1.00 in 0.40 in 5.50 in (1894)
Month to date snowfall 8.4 5.5  
Since 1 July snowfall 34.3 27.8  
Snow Depth 0.00 in    
Sea Level Pressure  
Sea Level Pressure 30.02 in    
Wind  
Wind Speed 8 mph (West)    
Max Wind Speed 20 mph    
Max Gust Speed 25 mph    
Visibility 9 miles    
Events Snow    
T = Trace of Precipitation, MM = Missing Value Source: NWS Daily Summary

Daily Weather History Graph

Daily Weather History Graph

Search for Another Location

Airport:

Trip Planner

Search our weather history database for the weather conditions in past years. The results will help you decide how hot, cold, wet, or windy it might be!

Date:

Astronomy

Feb. 15, 2013 Rise Set
Actual Time 7:14 AM EST 5:56 PM EST
Civil Twilight 6:46 AM EST 6:24 PM EST
Nautical Twilight 6:14 AM EST 6:56 PM EST
Astronomical Twilight 5:42 AM EST 7:27 PM EST
Moon 9:47 AM EST (2/15) 11:57 PM EST (2/15)
Length of Visible Light 11h 38m
Length of Day
10h 42m
Waxing Crescent, 30% of the Moon is Illuminated
Feb 15
Waxing Crescent
Feb 17
First Quarter
Feb 25
Full
Mar 4
Last Quarter
Mar 11
New

Hourly Weather History & Observations

Time (EST) Temp. Windchill Dew Point Humidity Pressure Visibility Wind Dir Wind Speed Gust Speed Precip Events Conditions
12:51 AM 39.0 °F 32.3 °F 32.0 °F 76% 29.94 in 10.0 mi West 10.4 mph - N/A   Overcast
1:51 AM 37.0 °F 29.8 °F 28.9 °F 73% 29.96 in 10.0 mi West 10.4 mph - N/A   Overcast
2:31 AM 35.6 °F 29.2 °F 26.6 °F 70% 29.92 in 10.0 mi West 8.1 mph - N/A   Overcast
2:51 AM 35.1 °F 29.3 °F 25.0 °F 67% 29.97 in 10.0 mi West 6.9 mph - N/A   Scattered Clouds
3:51 AM 33.1 °F 28.7 °F 25.0 °F 72% 29.98 in 10.0 mi SW 4.6 mph - N/A   Clear
4:51 AM 33.1 °F 26.9 °F 25.0 °F 72% 29.99 in 10.0 mi SW 6.9 mph - N/A   Scattered Clouds
5:51 AM 32.0 °F 28.7 °F 26.1 °F 79% 30.01 in 10.0 mi SSW 3.5 mph - N/A   Overcast
6:51 AM 33.1 °F 28.7 °F 26.1 °F 75% 30.02 in 10.0 mi SSW 4.6 mph - N/A   Overcast
7:51 AM 33.1 °F 26.9 °F 26.1 °F 75% 30.04 in 9.0 mi SSW 6.9 mph - N/A   Overcast
8:51 AM 33.1 °F 26.1 °F 26.1 °F 75% 30.06 in 9.0 mi SW 8.1 mph - N/A   Overcast
9:51 AM 34.0 °F 28.0 °F 26.1 °F 73% 30.05 in 10.0 mi Variable 6.9 mph - N/A   Scattered Clouds
10:35 AM 35.6 °F 27.1 °F 24.8 °F 65% 30.01 in 10.0 mi West 12.7 mph - N/A   Mostly Cloudy
10:51 AM 35.1 °F 27.4 °F 24.1 °F 64% 30.06 in 10.0 mi West 10.4 mph 16.1 mph N/A   Mostly Cloudy
11:51 AM 37.9 °F 30.5 °F 23.0 °F 55% 30.06 in 10.0 mi West 11.5 mph - N/A   Overcast
12:51 PM 37.0 °F 31.0 °F 23.0 °F 57% 30.03 in 10.0 mi WSW 8.1 mph 20.7 mph N/A   Overcast
1:51 PM 37.9 °F 30.9 °F 23.0 °F 55% 30.02 in 10.0 mi West 10.4 mph 17.3 mph N/A   Overcast
2:51 PM 37.0 °F 29.8 °F 21.9 °F 54% 30.02 in 10.0 mi SW 10.4 mph - N/A   Overcast
3:51 PM 37.0 °F 31.0 °F 24.1 °F 59% 30.03 in 10.0 mi WSW 8.1 mph - 0.00 in Snow Light Snow
4:51 PM 36.0 °F 29.6 °F 23.0 °F 59% 30.03 in 10.0 mi WSW 8.1 mph - 0.00 in   Mostly Cloudy
5:51 PM 35.1 °F 29.3 °F 25.0 °F 67% 30.04 in 10.0 mi West 6.9 mph - 0.00 in   Overcast
6:51 PM 34.0 °F 31.0 °F 26.1 °F 73% 30.05 in 10.0 mi West 3.5 mph - 0.00 in   Overcast
7:18 PM 32.0 °F 25.6 °F 28.4 °F 87% 30.00 in 1.5 mi West 6.9 mph - 0.00 in Snow Light Snow
7:51 PM 30.0 °F 21.7 °F 28.0 °F 92% 30.07 in 1.0 mi NW 9.2 mph - 0.02 in Snow Light Snow
8:35 PM 30.2 °F 22.6 °F 28.4 °F 93% 30.01 in 1.0 mi NNW 8.1 mph - 0.01 in Snow Light Snow
8:51 PM 30.0 °F 20.5 °F 27.0 °F 88% 30.07 in 1.0 mi NNW 11.5 mph - 0.01 in Snow Light Snow
9:13 PM 30.2 °F 18.5 °F 26.6 °F 86% 30.02 in 2.0 mi NNW 17.3 mph 21.9 mph 0.00 in Snow Light Snow
9:25 PM 28.4 °F 17.5 °F 24.8 °F 86% 30.02 in 4.0 mi North 13.8 mph 21.9 mph 0.00 in Snow Light Snow
9:51 PM 28.9 °F 18.6 °F 25.0 °F 85% 30.09 in 10.0 mi NNW 12.7 mph - 0.00 in   Overcast
10:51 PM 28.0 °F 20.0 °F 21.9 °F 78% 30.09 in 10.0 mi NNW 8.1 mph - 0.00 in   Mostly Cloudy
11:51 PM 27.0 °F 18.7 °F 19.0 °F 72% 30.08 in 10.0 mi NW 8.1 mph - N/A   Overcast